Grand Princess — ZCBU5 — position and weather

sailwx.info

Track history (hours):
 
Tides and Currents Weather Stations Pressure Air Temp Water Temp Dewpoint Dewpoint Depression Visibility Wind Speed Wind Dir Waves Ship Positions

Grand Princess

Operator: Princess Cruises

Last reported at 2019-Jul-16 07:09 UTC. Time now 2019-Jul-16 12:05 UTC.
Position N 38°47' W 124°01'.

Length 289.5 m; beam 36 m; draft 8.5 m.

Type: Passenger vessel. MMSI: 310327000.

Date/timePositionNaut miles runAvg speedWind from/ knotsBaromVisibWave heightAir tempDewpointWater temp
2019-Jul-16 07:09N 38°47' W 124°01'319.3
2019-Jul-16 07:00N 38°45' W 123°59'918.7
2019-Jul-16 06:30N 38°38' W 123°51'918.6
2019-Jul-16 06:01N 38°31' W 123°43'1019.0
2019-Jul-16 05:30N 38°23' W 123°36'918.8
2019-Jul-16 05:01N 38°16' W 123°28'815.0
2019-Jul-16 04:30N 38°11' W 123°22'510.2
2019-Jul-16 04:01N 38°07' W 123°17'510.0
2019-Jul-16 03:31N 38°03' W 123°13'510.2
2019-Jul-16 03:01N 37°59' W 123°09'5 9.9
2019-Jul-16 02:31N 37°56' W 123°04'5 9.9
2019-Jul-16 02:01N 37°54' W 122°58'510.2
2019-Jul-16 01:31N 37°51' W 122°53'510.2
2019-Jul-16 01:01N 37°49' W 122°47'510.0
2019-Jul-16 00:31N 37°46' W 122°42'5 9.4
2019-Jul-16 00:00N 37°47' W 122°36'815.3
2019-Jul-15 23:30N 37°49' W 122°27'3 4.7
2019-Jul-15 22:57N 37°48' W 122°24'0 0.0
2019-Jul-15 22:27N 37°48' W 122°24'0 0.0
2019-Jul-15 21:57N 37°48' W 122°24'0 0.0
2019-Jul-15 21:27N 37°48' W 122°24'0 0.0
2019-Jul-15 20:57N 37°48' W 122°24'0 0.0
2019-Jul-15 20:31N 37°48' W 122°24'0 0.0
2019-Jul-15 19:58N 37°48' W 122°24'0 0.0
2019-Jul-15 19:28N 37°48' W 122°24'0 0.0
2019-Jul-15 18:58N 37°48' W 122°24'0 0.0
2019-Jul-15 18:28N 37°48' W 122°24'0 0.0
2019-Jul-15 17:58N 37°48' W 122°24'0 0.0
2019-Jul-15 17:28N 37°48' W 122°24'0 0.0
2019-Jul-15 16:58N 37°48' W 122°24'0 0.0
2019-Jul-15 16:28N 37°48' W 122°24'0 0.0
2019-Jul-15 15:58N 37°48' W 122°24'0 0.0
2019-Jul-15 15:28N 37°48' W 122°24'0 0.0
2019-Jul-15 14:58N 37°48' W 122°24'0 0.0
2019-Jul-15 14:28N 37°48' W 122°24'0 0.0
2019-Jul-15 13:58N 37°48' W 122°24'0 0.0
2019-Jul-15 13:31N 37°48' W 122°24'1 2.5
2019-Jul-15 13:01N 37°49' W 122°25'612.1
2019-Jul-15 12:30N 37°47' W 122°33'713.3
2019-Jul-15 12:00N 37°46' W 122°41'510.2
2019-Jul-15 11:30N 37°47' W 122°47'510.3
2019-Jul-15 11:00N 37°49' W 122°53'510.2
2019-Jul-15 10:30N 37°52' W 122°59'5 9.9
2019-Jul-15 10:00N 37°54' W 123°04'510.0
2019-Jul-15 09:30N 37°57' W 123°09'5 9.9
2019-Jul-15 09:00N 38°00' W 123°14'510.1
2019-Jul-15 08:30N 38°04' W 123°18'510.2
2019-Jul-15 08:00N 38°08' W 123°22'816.7
2019-Jul-15 07:30N 38°15' W 123°29'918.3
2019-Jul-15 07:00N 38°22' W 123°36'918.7
2019-Jul-15 06:30N 38°29' W 123°44'918.7
2019-Jul-15 06:00N 38°36' W 123°51'918.5
2019-Jul-15 05:30N 38°44' W 123°59'1119.4
2019-Jul-15 04:56N 38°52' W 124°08'819.9
2019-Jul-15 04:30N 38°59' W 124°15'15720.7
2019-Jul-14 20:55N 41°31' W 125°07'922.5
2019-Jul-14 20:30N 41°40' W 125°08'1122.4
2019-Jul-14 20:00N 41°51' W 125°09'1721.7
2019-Jul-14 19:13N 42°08' W 125°10'11521.7
2019-Jul-14 13:53N 44°04' W 125°17'921.8
2019-Jul-14 13:29N 44°13' W 125°18'1321.9
2019-Jul-14 12:54N 44°25' W 125°19'1021.7
2019-Jul-14 12:26N 44°35' W 125°19'1221.9
2019-Jul-14 11:54N 44°47' W 125°21'3622.0
2019-Jul-14 10:15N 45°23' W 125°25'922.0
2019-Jul-14 09:49N 45°33' W 125°26'721.9
2019-Jul-14 09:30N 45°40' W 125°26'2522.1
2019-Jul-14 08:21N 46°05' W 125°29'822.3
2019-Jul-14 08:00N 46°13' W 125°30'1122.3
2019-Jul-14 07:30N 46°24' W 125°31'1122.2
2019-Jul-14 06:59N 46°35' W 125°32'1122.1
2019-Jul-14 06:31N 46°46' W 125°33'1122.1
2019-Jul-14 06:00N 46°57' W 125°35'1222.0
2019-Jul-14 05:29N 47°08' W 125°36'6522.2
2019-Jul-14 02:34N 48°13' W 125°43'222.0
2019-Jul-14 02:30N 48°15' W 125°43'1121.4
2019-Jul-14 02:00N 48°21' W 125°31'1121.8
2019-Jul-14 01:30N 48°27' W 125°17'1121.3
2019-Jul-14 01:00N 48°31' W 125°02'1122.4
2019-Jul-14 00:30N 48°31' W 124°45'1122.0
2019-Jul-14 00:00N 48°27' W 124°30'1121.7
2019-Jul-13 23:30N 48°23' W 124°15'1020.4
2019-Jul-13 23:00N 48°19' W 124°01'1220.0
2019-Jul-13 22:25N 48°16' W 123°43'717.5
2019-Jul-13 22:00N 48°16' W 123°32'612.9
2019-Jul-13 21:31N 48°21' W 123°26'4 8.7
2019-Jul-13 21:01N 48°25' W 123°24'0 0.2
2019-Jul-13 20:29N 48°25' W 123°24'0 0.0
2019-Jul-13 19:59N 48°25' W 123°24'0 0.0
2019-Jul-13 19:29N 48°25' W 123°24'0 0.0
2019-Jul-13 18:59N 48°25' W 123°24'0 0.0
2019-Jul-13 18:29N 48°25' W 123°24'0 0.0
2019-Jul-13 17:59N 48°25' W 123°24'0 0.0
2019-Jul-13 17:29N 48°25' W 123°24'0 0.0
2019-Jul-13 16:59N 48°25' W 123°24'0 0.0
2019-Jul-13 16:29N 48°25' W 123°24'0 0.0
2019-Jul-13 15:59N 48°25' W 123°24'0 0.0
2019-Jul-13 15:29N 48°25' W 123°24'0 0.0
2019-Jul-13 14:59N 48°25' W 123°24'0 0.0
2019-Jul-13 14:29N 48°25' W 123°24'0 0.0
2019-Jul-13 13:59N 48°25' W 123°24'1 2.5
2019-Jul-13 13:30N 48°24' W 123°25'510.6
2019-Jul-13 13:00N 48°19' W 123°25'612.5
2019-Jul-13 12:31N 48°14' W 123°30'714.7
2019-Jul-13 12:00N 48°13' W 123°41'816.6
2019-Jul-13 11:31N 48°13' W 123°54'816.5
2019-Jul-13 11:01N 48°17' W 124°05'816.9
2019-Jul-13 10:30N 48°21' W 124°16'917.0
2019-Jul-13 10:00N 48°24' W 124°28'815.2
2019-Jul-13 09:31N 48°27' W 124°39'713.9
2019-Jul-13 09:01N 48°28' W 124°49'714.2
2019-Jul-13 08:30N 48°29' W 124°60'714.0
2019-Jul-13 08:00N 48°29' W 125°10'816.4
2019-Jul-13 07:30N 48°32' W 125°22'917.1
2019-Jul-13 07:00N 48°37' W 125°32'816.6
2019-Jul-13 06:30N 48°42' W 125°42'816.9
2019-Jul-13 06:00N 48°47' W 125°52'917.0
2019-Jul-13 05:30N 48°52' W 126°03'1020.4
2019-Jul-13 05:00N 48°57' W 126°16'1020.9
2019-Jul-13 04:30N 49°04' W 126°29'1120.8
2019-Jul-13 03:59N 49°10' W 126°42'  
2019-Jul-09 23:00N 59°12' W 135°24'278 8.3 180 / 81014.610.8 21.014.213.0
2019-Jul-08 13:26N 55°10' W 131°11'1314.1
2019-Jul-08 12:29N 54°57' W 131°08'815.9
2019-Jul-08 12:00N 54°49' W 131°07'815.6
2019-Jul-08 11:29N 54°41' W 131°12'815.8
2019-Jul-08 11:01N 54°34' W 131°15'917.9
2019-Jul-08 10:30N 54°25' W 131°09'816.4
2019-Jul-08 10:00N 54°18' W 131°05'815.1
2019-Jul-08 09:30N 54°11' W 131°01'816.1
2019-Jul-08 09:00N 54°03' W 130°60'917.7
2019-Jul-08 08:30N 53°54' W 130°58'917.4
2019-Jul-08 08:00N 53°45' W 130°56'917.4
2019-Jul-08 07:30N 53°37' W 130°54'1019.7
2019-Jul-08 06:59N 53°26' W 130°52'919.6
2019-Jul-08 06:30N 53°17' W 130°47'1219.6
2019-Jul-08 05:54N 53°06' W 130°41'2119.6
2019-Jul-08 04:51N 52°46' W 130°31'720.2
2019-Jul-08 04:30N 52°40' W 130°28'1320.0
2019-Jul-08 03:52N 52°28' W 130°22'720.4
2019-Jul-08 03:30N 52°20' W 130°18'1919.9
2019-Jul-08 02:33N 52°02' W 130°09'119.6
2019-Jul-08 02:30N 52°01' W 130°09'1019.5
2019-Jul-08 02:00N 51°52' W 130°04'917.9
2019-Jul-08 01:30N 51°44' W 130°00'917.0
2019-Jul-08 01:00N 51°35' W 129°56'917.4
2019-Jul-08 00:30N 51°27' W 129°52'816.9
2019-Jul-08 00:00N 51°19' W 129°48'1019.2
2019-Jul-07 23:30N 51°10' W 129°44'1019.9
2019-Jul-07 23:00N 51°00' W 129°39'1019.8
2019-Jul-07 22:31N 50°51' W 129°34'1020.3
2019-Jul-07 22:00N 50°41' W 129°30'1020.1
2019-Jul-07 21:30N 50°31' W 129°25'1019.7
2019-Jul-07 21:00N 50°22' W 129°21'6120.1
2019-Jul-07 18:00N 49°24' W 128°54'7619.0 300 / 201018.410.8 14.511.716.0
2019-Jul-07 14:00N 48°12' W 128°18'20519.7 310 / 191018.510.8 14.411.817.0
2019-Jul-07 03:38N 44°56' W 126°52'3420.9
2019-Jul-07 02:00N 44°24' W 126°36'515.4 320 / 151019.910.8 16.512.917.0
2019-Jul-07 01:39N 44°19' W 126°37'619.9
2019-Jul-07 01:20N 44°13' W 126°34'32019.3
2019-Jul-06 08:44N 39°09' W 124°20'417.8
2019-Jul-06 08:29N 39°05' W 124°18'917.9
2019-Jul-06 07:59N 38°57' W 124°12'1118.3
2019-Jul-06 07:24N 38°49' W 124°03'  
Track history (hours):
 
Tides and Currents Weather Stations Pressure Air Temp Water Temp Dewpoint Dewpoint Depression Visibility Wind Speed Wind Dir Waves Ship Positions

Grand Princess

Operator: Princess Cruises

Last reported at 2019-Jul-16 07:09 UTC. Time now 2019-Jul-16 12:05 UTC.
Position N 38°47' W 124°01'.

Length 289.5 m; beam 36 m; draft 8.5 m.

Type: Passenger vessel. MMSI: 310327000.

Date/timePositionNaut miles runAvg speedWind from/ knotsBaromVisibWave heightAir tempDewpointWater temp
2019-Jul-16 07:09N 38°47' W 124°01'319.3
2019-Jul-16 07:00N 38°45' W 123°59'918.7
2019-Jul-16 06:30N 38°38' W 123°51'918.6
2019-Jul-16 06:01N 38°31' W 123°43'1019.0
2019-Jul-16 05:30N 38°23' W 123°36'918.8
2019-Jul-16 05:01N 38°16' W 123°28'815.0
2019-Jul-16 04:30N 38°11' W 123°22'510.2
2019-Jul-16 04:01N 38°07' W 123°17'510.0
2019-Jul-16 03:31N 38°03' W 123°13'510.2
2019-Jul-16 03:01N 37°59' W 123°09'5 9.9
2019-Jul-16 02:31N 37°56' W 123°04'5 9.9
2019-Jul-16 02:01N 37°54' W 122°58'510.2
2019-Jul-16 01:31N 37°51' W 122°53'510.2
2019-Jul-16 01:01N 37°49' W 122°47'510.0
2019-Jul-16 00:31N 37°46' W 122°42'5 9.4
2019-Jul-16 00:00N 37°47' W 122°36'815.3
2019-Jul-15 23:30N 37°49' W 122°27'3 4.7
2019-Jul-15 22:57N 37°48' W 122°24'0 0.0
2019-Jul-15 22:27N 37°48' W 122°24'0 0.0
2019-Jul-15 21:57N 37°48' W 122°24'0 0.0
2019-Jul-15 21:27N 37°48' W 122°24'0 0.0
2019-Jul-15 20:57N 37°48' W 122°24'0 0.0
2019-Jul-15 20:31N 37°48' W 122°24'0 0.0
2019-Jul-15 19:58N 37°48' W 122°24'0 0.0
2019-Jul-15 19:28N 37°48' W 122°24'0 0.0
2019-Jul-15 18:58N 37°48' W 122°24'0 0.0
2019-Jul-15 18:28N 37°48' W 122°24'0 0.0
2019-Jul-15 17:58N 37°48' W 122°24'0 0.0
2019-Jul-15 17:28N 37°48' W 122°24'0 0.0
2019-Jul-15 16:58N 37°48' W 122°24'0 0.0
2019-Jul-15 16:28N 37°48' W 122°24'0 0.0
2019-Jul-15 15:58N 37°48' W 122°24'0 0.0
2019-Jul-15 15:28N 37°48' W 122°24'0 0.0
2019-Jul-15 14:58N 37°48' W 122°24'0 0.0
2019-Jul-15 14:28N 37°48' W 122°24'0 0.0
2019-Jul-15 13:58N 37°48' W 122°24'0 0.0
2019-Jul-15 13:31N 37°48' W 122°24'1 2.5
2019-Jul-15 13:01N 37°49' W 122°25'612.1
2019-Jul-15 12:30N 37°47' W 122°33'713.3
2019-Jul-15 12:00N 37°46' W 122°41'510.2
2019-Jul-15 11:30N 37°47' W 122°47'510.3
2019-Jul-15 11:00N 37°49' W 122°53'510.2
2019-Jul-15 10:30N 37°52' W 122°59'5 9.9
2019-Jul-15 10:00N 37°54' W 123°04'510.0
2019-Jul-15 09:30N 37°57' W 123°09'5 9.9
2019-Jul-15 09:00N 38°00' W 123°14'510.1
2019-Jul-15 08:30N 38°04' W 123°18'510.2
2019-Jul-15 08:00N 38°08' W 123°22'816.7
2019-Jul-15 07:30N 38°15' W 123°29'918.3
2019-Jul-15 07:00N 38°22' W 123°36'918.7
2019-Jul-15 06:30N 38°29' W 123°44'918.7
2019-Jul-15 06:00N 38°36' W 123°51'918.5
2019-Jul-15 05:30N 38°44' W 123°59'1119.4
2019-Jul-15 04:56N 38°52' W 124°08'819.9
2019-Jul-15 04:30N 38°59' W 124°15'15720.7
2019-Jul-14 20:55N 41°31' W 125°07'922.5
2019-Jul-14 20:30N 41°40' W 125°08'1122.4
2019-Jul-14 20:00N 41°51' W 125°09'1721.7
2019-Jul-14 19:13N 42°08' W 125°10'11521.7
2019-Jul-14 13:53N 44°04' W 125°17'921.8
2019-Jul-14 13:29N 44°13' W 125°18'1321.9
2019-Jul-14 12:54N 44°25' W 125°19'1021.7
2019-Jul-14 12:26N 44°35' W 125°19'1221.9
2019-Jul-14 11:54N 44°47' W 125°21'3622.0
2019-Jul-14 10:15N 45°23' W 125°25'922.0
2019-Jul-14 09:49N 45°33' W 125°26'721.9
2019-Jul-14 09:30N 45°40' W 125°26'2522.1
2019-Jul-14 08:21N 46°05' W 125°29'822.3
2019-Jul-14 08:00N 46°13' W 125°30'1122.3
2019-Jul-14 07:30N 46°24' W 125°31'1122.2
2019-Jul-14 06:59N 46°35' W 125°32'1122.1
2019-Jul-14 06:31N 46°46' W 125°33'1122.1
2019-Jul-14 06:00N 46°57' W 125°35'1222.0
2019-Jul-14 05:29N 47°08' W 125°36'6522.2
2019-Jul-14 02:34N 48°13' W 125°43'222.0
2019-Jul-14 02:30N 48°15' W 125°43'1121.4
2019-Jul-14 02:00N 48°21' W 125°31'1121.8
2019-Jul-14 01:30N 48°27' W 125°17'1121.3
2019-Jul-14 01:00N 48°31' W 125°02'1122.4
2019-Jul-14 00:30N 48°31' W 124°45'1122.0
2019-Jul-14 00:00N 48°27' W 124°30'1121.7
2019-Jul-13 23:30N 48°23' W 124°15'1020.4
2019-Jul-13 23:00N 48°19' W 124°01'1220.0
2019-Jul-13 22:25N 48°16' W 123°43'717.5
2019-Jul-13 22:00N 48°16' W 123°32'612.9
2019-Jul-13 21:31N 48°21' W 123°26'4 8.7
2019-Jul-13 21:01N 48°25' W 123°24'0 0.2
2019-Jul-13 20:29N 48°25' W 123°24'0 0.0
2019-Jul-13 19:59N 48°25' W 123°24'0 0.0
2019-Jul-13 19:29N 48°25' W 123°24'0 0.0
2019-Jul-13 18:59N 48°25' W 123°24'0 0.0
2019-Jul-13 18:29N 48°25' W 123°24'0 0.0
2019-Jul-13 17:59N 48°25' W 123°24'0 0.0
2019-Jul-13 17:29N 48°25' W 123°24'0 0.0
2019-Jul-13 16:59N 48°25' W 123°24'0 0.0
2019-Jul-13 16:29N 48°25' W 123°24'0 0.0
2019-Jul-13 15:59N 48°25' W 123°24'0 0.0
2019-Jul-13 15:29N 48°25' W 123°24'0 0.0
2019-Jul-13 14:59N 48°25' W 123°24'0 0.0
2019-Jul-13 14:29N 48°25' W 123°24'0 0.0
2019-Jul-13 13:59N 48°25' W 123°24'1 2.5
2019-Jul-13 13:30N 48°24' W 123°25'510.6
2019-Jul-13 13:00N 48°19' W 123°25'612.5
2019-Jul-13 12:31N 48°14' W 123°30'714.7
2019-Jul-13 12:00N 48°13' W 123°41'816.6
2019-Jul-13 11:31N 48°13' W 123°54'816.5
2019-Jul-13 11:01N 48°17' W 124°05'816.9
2019-Jul-13 10:30N 48°21' W 124°16'917.0
2019-Jul-13 10:00N 48°24' W 124°28'815.2
2019-Jul-13 09:31N 48°27' W 124°39'713.9
2019-Jul-13 09:01N 48°28' W 124°49'714.2
2019-Jul-13 08:30N 48°29' W 124°60'714.0
2019-Jul-13 08:00N 48°29' W 125°10'816.4
2019-Jul-13 07:30N 48°32' W 125°22'917.1
2019-Jul-13 07:00N 48°37' W 125°32'816.6
2019-Jul-13 06:30N 48°42' W 125°42'816.9
2019-Jul-13 06:00N 48°47' W 125°52'917.0
2019-Jul-13 05:30N 48°52' W 126°03'1020.4
2019-Jul-13 05:00N 48°57' W 126°16'1020.9
2019-Jul-13 04:30N 49°04' W 126°29'1120.8
2019-Jul-13 03:59N 49°10' W 126°42'  
2019-Jul-09 23:00N 59°12' W 135°24'278 8.3 180 / 81014.610.8 21.014.213.0
2019-Jul-08 13:26N 55°10' W 131°11'1314.1
2019-Jul-08 12:29N 54°57' W 131°08'815.9
2019-Jul-08 12:00N 54°49' W 131°07'815.6
2019-Jul-08 11:29N 54°41' W 131°12'815.8
2019-Jul-08 11:01N 54°34' W 131°15'917.9
2019-Jul-08 10:30N 54°25' W 131°09'816.4
2019-Jul-08 10:00N 54°18' W 131°05'815.1
2019-Jul-08 09:30N 54°11' W 131°01'816.1
2019-Jul-08 09:00N 54°03' W 130°60'917.7
2019-Jul-08 08:30N 53°54' W 130°58'917.4
2019-Jul-08 08:00N 53°45' W 130°56'917.4
2019-Jul-08 07:30N 53°37' W 130°54'1019.7
2019-Jul-08 06:59N 53°26' W 130°52'919.6
2019-Jul-08 06:30N 53°17' W 130°47'1219.6
2019-Jul-08 05:54N 53°06' W 130°41'2119.6
2019-Jul-08 04:51N 52°46' W 130°31'720.2
2019-Jul-08 04:30N 52°40' W 130°28'1320.0
2019-Jul-08 03:52N 52°28' W 130°22'720.4
2019-Jul-08 03:30N 52°20' W 130°18'1919.9
2019-Jul-08 02:33N 52°02' W 130°09'119.6
2019-Jul-08 02:30N 52°01' W 130°09'1019.5
2019-Jul-08 02:00N 51°52' W 130°04'917.9
2019-Jul-08 01:30N 51°44' W 130°00'917.0
2019-Jul-08 01:00N 51°35' W 129°56'917.4
2019-Jul-08 00:30N 51°27' W 129°52'816.9
2019-Jul-08 00:00N 51°19' W 129°48'1019.2
2019-Jul-07 23:30N 51°10' W 129°44'1019.9
2019-Jul-07 23:00N 51°00' W 129°39'1019.8
2019-Jul-07 22:31N 50°51' W 129°34'1020.3
2019-Jul-07 22:00N 50°41' W 129°30'1020.1
2019-Jul-07 21:30N 50°31' W 129°25'1019.7
2019-Jul-07 21:00N 50°22' W 129°21'6120.1
2019-Jul-07 18:00N 49°24' W 128°54'7619.0 300 / 201018.410.8 14.511.716.0
2019-Jul-07 14:00N 48°12' W 128°18'20519.7 310 / 191018.510.8 14.411.817.0
2019-Jul-07 03:38N 44°56' W 126°52'3420.9
2019-Jul-07 02:00N 44°24' W 126°36'515.4 320 / 151019.910.8 16.512.917.0
2019-Jul-07 01:39N 44°19' W 126°37'619.9
2019-Jul-07 01:20N 44°13' W 126°34'32019.3
2019-Jul-06 08:44N 39°09' W 124°20'417.8
2019-Jul-06 08:29N 39°05' W 124°18'917.9
2019-Jul-06 07:59N 38°57' W 124°12'1118.3
2019-Jul-06 07:24N 38°49' W 124°03'  

Dump ship's entire track history